Theta_e
334 335 333 334 333 333 332 342 344 341 341 339 339 340 340 344 344 342 330 338 342 339 335 334 333 332 332 330 329 328 327 326 325 325 324 324 323 324 325 325 326 326 327
335 335 332 330 331 337 342 343 339 337 336 337 338 341 343 342 341 336 331 331 340 337 334 332 331 330 330 329 329 327 327 325 324 324 323 322 322 323 324 324 325 325 325
336 334 331 333 340 342 340 337 336 336 337 337 335 337 340 340 339 336 331 327 328 336 333 330 328 328 328 328 327 326 325 324 324 324 323 321 321 321 322 323 325 325 325
336 337 342 341 342 339 337 337 336 335 334 330 330 330 327 325 323 322 322 320 318 321 327 329 327 326 325 326 325 325 326 324 325 325 324 322 321 321 321 322 323 323 322
339 344 342 339 339 338 338 337 334 334 322 321 326 322 320 317 316 318 316 317 318 316 316 325 326 324 323 323 324 325 325 326 325 326 324 322 320 321 321 322 323 323 323
347 342 340 339 338 334 331 333 319 317 318 318 320 317 315 314 313 312 313 316 315 314 314 314 312 314 322 322 323 325 327 326 325 323 322 320 320 321 322 322 322 323 322
343 341 339 335 330 325 322 327 321 313 313 314 314 313 311 311 311 310 311 313 313 314 314 312 312 312 312 320 321 324 325 324 322 321 319 319 320 321 321 322 322 322 322
338 338 334 328 324 320 319 318 317 314 311 311 311 307 303 305 310 310 309 311 310 312 313 314 312 311 310 310 316 323 323 322 322 321 319 320 320 321 321 321 321 321 321
333 332 326 323 320 318 316 314 314 311 308 309 308 305 300 298 303 306 308 307 307 309 309 311 311 311 311 310 313 317 322 321 322 322 321 321 322 322 322 321 320 321 321
326 325 322 320 317 316 314 313 313 309 308 307 308 309 306 305 300 299 305 306 306 308 307 308 309 310 311 310 316 320 320 320 321 322 322 322 322 322 322 321 320 320 321
322 322 319 317 315 314 313 313 312 311 308 307 306 305 304 304 303 300 298 303 306 306 308 307 308 309 310 310 311 315 319 319 319 319 320 320 321 321 321 320 321 319 320
319 319 318 315 314 313 313 313 312 311 309 308 306 305 304 302 302 302 300 299 300 304 306 307 307 308 309 309 315 319 318 317 318 317 317 318 318 319 318 318 319 320 321
315 314 314 313 313 313 313 312 311 310 309 309 308 307 306 305 304 303 302 300 299 303 304 305 306 306 309 308 310 319 316 316 318 317 316 316 316 317 316 317 318 319 320
314 313 313 314 315 315 313 312 311 310 310 309 308 308 307 306 306 305 304 301 298 299 300 301 306 307 306 307 313 318 309 315 317 316 316 315 315 315 315 315 315 316 316
315 314 314 313 313 314 313 311 310 310 310 308 308 306 304 303 303 303 303 302 300 294 296 302 301 306 305 306 309 310 308 316 316 316 315 314 314 313 314 313 313 313 314
313 312 312 312 313 313 313 311 309 309 309 307 304 303 301 300 299 300 301 302 301 299 296 301 303 303 305 306 310 308 308 314 315 315 314 313 313 313 313 312 312 312 311
311 311 312 313 313 312 311 310 310 310 308 306 305 303 301 298 296 296 298 299 300 300 297 299 302 303 302 303 306 308 310 308 309 314 314 313 312 311 312 312 310 310 309
311 312 313 314 314 313 311 311 312 310 308 305 302 300 298 299 295 295 296 297 297 299 298 296 299 300 301 303 304 304 308 310 307 313 313 312 311 311 310 310 308 308 306
310 311 313 313 313 312 311 310 311 310 308 303 300 298 297 296 295 295 296 297 297 300 299 298 298 299 301 302 303 304 305 305 309 313 311 311 311 311 310 309 308 306 305
310 310 311 311 312 311 311 311 308 305 304 302 301 298 297 297 296 296 298 297 298 298 298 298 298 299 301 304 304 304 303 305 306 308 310 309 310 311 310 310 309 308 304
309 308 307 307 307 309 311 308 305 303 302 301 301 299 298 302 305 303 300 298 297 297 297 296 296 296 298 299 301 303 301 304 302 303 305 304 305 307 308 309 309 308 304
306 306 305 304 302 304 304 307 305 300 300 299 295 294 295 298 297 301 303 304 304 297 296 294 294 294 297 298 301 301 299 302 299 304 304 300 306 304 307 307 306 305 304
304 303 301 300 298 296 300 304 305 301 296 292 292 292 293 294 294 293 297 300 300 301 302 297 294 295 296 298 299 299 298 296 299 302 303 300 305 303 304 307 305 305 303
302 300 298 297 296 295 298 301 302 297 293 292 292 292 291 290 292 293 293 294 295 295 296 298 295 296 296 297 299 300 298 298 298 301 304 301 301 302 302 304 305 304 303
299 296 296 294 294 294 297 300 298 293 292 292 293 292 291 291 294 294 293 293 293 294 299 300 299 297 296 297 301 300 299 295 295 297 302 302 303 302 300 303 305 304 303
298 296 291 291 296 295 297 297 295 293 291 292 292 291 296 293 294 294 292 291 292 292 292 293 294 295 295 296 300 296 296 295 294 294 299 300 301 300 297 304 304 304 305
Wind_Speed
3 2 1 2 2 2 1 2 3 2 4 5 4 6 7 8 8 5 3 15 14 16 15 14 13 14 14 16 14 15 16 18 19 19 21 23 23 22 21 21 20 20 20
2 3 1 2 2 3 2 3 3 3 4 4 6 8 8 7 7 6 4 6 13 14 13 13 14 15 15 16 15 16 16 18 19 19 21 21 23 23 22 21 21 21 21
3 4 3 3 3 3 4 3 3 4 5 4 6 5 5 5 5 6 5 5 5 12 11 13 14 15 16 18 17 17 18 18 17 16 18 20 21 21 22 22 21 21 21
5 5 4 3 3 4 2 3 4 4 3 4 4 4 4 4 5 6 5 4 4 4 7 13 14 15 15 16 16 17 17 18 17 15 15 17 20 20 21 21 21 22 22
6 6 4 4 4 4 3 4 4 3 4 4 7 5 5 5 5 5 6 6 5 4 3 11 12 13 14 15 17 16 19 18 19 18 18 18 19 20 20 21 21 22 21
8 7 5 5 3 3 4 4 5 5 3 5 8 7 5 5 4 5 4 3 4 4 4 5 3 5 14 15 15 17 22 20 19 19 17 18 19 20 22 23 23 23 23
6 8 5 5 3 4 3 3 3 5 5 3 5 6 4 5 6 5 4 4 4 4 4 2 2 3 4 11 11 16 20 20 18 18 18 18 19 20 20 21 24 24 23
6 6 7 5 5 5 5 4 4 3 3 4 3 3 2 4 4 5 4 3 5 3 3 3 4 5 4 4 8 14 18 17 17 17 18 19 20 19 21 22 23 24 24
6 7 6 5 6 4 4 3 3 6 4 4 4 4 2 3 0 3 4 4 4 3 3 4 5 5 6 5 8 9 17 16 17 18 19 20 23 23 23 23 23 25 26
7 7 6 6 6 4 5 3 2 4 4 4 3 5 5 3 3 1 3 2 3 3 4 3 5 5 6 6 10 14 17 18 20 19 20 22 23 24 25 24 25 27 26
6 7 7 7 6 4 5 6 6 6 2 4 3 2 5 4 4 3 1 4 3 2 2 4 4 4 6 6 6 9 17 19 20 20 21 22 23 23 25 25 26 27 28
4 6 7 6 5 6 6 5 5 7 6 6 4 4 3 2 0 3 2 2 2 3 1 3 4 4 5 6 11 18 18 18 19 20 21 20 20 22 24 25 26 27 29
3 5 6 5 4 5 5 6 6 7 5 5 6 4 3 2 2 2 2 1 1 3 3 1 3 4 5 5 6 19 18 18 18 18 20 18 18 20 24 26 27 29 31
5 5 6 6 6 6 6 6 5 6 6 6 7 6 4 3 3 2 2 2 2 2 2 3 3 5 5 5 10 19 9 18 18 18 17 17 19 20 23 28 29 29 31
6 7 7 6 6 6 7 7 6 6 6 5 5 6 4 3 4 3 2 2 3 1 2 3 3 6 5 5 9 8 7 17 19 18 17 18 19 20 22 26 29 31 32
7 7 6 6 6 6 7 7 6 5 8 4 4 6 4 3 4 3 3 3 2 2 0 2 4 4 6 5 8 7 8 14 16 19 18 18 18 19 22 24 29 31 34
9 7 7 6 6 6 7 6 7 6 8 6 4 5 6 4 4 4 4 3 3 1 1 3 2 4 4 5 7 8 8 6 6 18 18 19 18 19 21 23 28 31 34
7 7 7 7 6 7 7 7 7 5 8 6 4 6 6 3 6 5 3 3 2 2 1 3 3 3 4 4 5 6 6 6 5 14 18 18 18 19 21 23 26 30 32
7 6 7 7 6 7 7 7 7 5 7 6 4 6 5 6 5 3 3 4 3 2 1 1 4 3 4 3 4 4 6 5 5 15 17 15 17 18 19 22 27 30 31
7 6 6 7 5 7 8 8 7 7 7 5 4 5 5 6 4 4 3 3 3 2 2 2 3 4 3 5 3 5 7 5 7 6 13 11 14 15 18 20 26 31 30
8 7 8 6 6 6 5 9 7 6 7 6 3 4 6 7 8 3 1 3 2 2 2 2 3 3 3 4 4 4 3 6 5 3 8 6 7 7 9 14 22 28 29
8 8 8 7 7 4 8 12 8 6 6 6 4 6 5 8 7 8 8 5 2 2 3 2 3 3 5 3 4 4 3 6 6 4 8 4 7 8 8 9 20 23 26
9 9 7 7 7 6 7 11 11 6 6 5 5 5 5 4 6 6 8 7 8 7 2 2 2 3 4 3 5 5 5 3 3 5 7 4 7 7 5 7 18 22 23
10 9 7 6 7 4 7 11 12 7 6 6 6 5 4 4 6 6 6 6 7 5 6 4 3 5 4 6 3 3 3 6 4 4 7 4 4 8 5 5 14 20 21
8 6 6 6 6 5 8 13 10 6 6 6 5 4 3 5 7 6 7 6 6 6 5 4 2 4 8 10 8 4 5 5 4 3 8 4 6 8 4 4 7 18 16
8 8 7 4 6 6 9 13 9 5 6 4 4 4 5 5 5 7 6 4 7 5 7 8 9 8 8 8 10 5 3 2 3 4 5 6 6 6 6 3 6 9 9
Wind_Direction
183 224 192 215 236 250 194 129 67 55 50 43 22 49 82 99 100 97 89 87 83 78 74 59 50 35 40 24 16 14 6 4 358 358 1 356 349 343 339 334 332 331 329
199 218 158 105 158 123 129 110 111 77 53 45 44 61 89 98 109 108 94 86 90 80 66 61 45 35 30 16 10 4 5 3 356 358 355 355 352 348 340 337 331 333 329
211 159 135 140 150 121 118 115 75 58 51 49 61 78 91 105 118 102 94 69 58 76 67 57 48 38 25 7 3 2 0 353 359 347 350 349 348 345 343 340 339 332 329
156 142 129 128 122 117 138 85 65 62 53 52 69 67 66 63 60 70 71 68 62 51 38 65 51 37 20 13 8 2 360 356 347 338 344 348 349 341 341 334 336 334 327
152 128 126 121 130 121 81 77 56 82 49 62 90 61 45 40 32 60 67 70 78 62 41 56 48 29 21 20 15 5 358 358 345 355 356 350 346 342 339 336 333 327 321
126 117 108 104 100 93 71 74 83 47 77 87 94 69 47 40 32 48 69 73 85 57 69 70 32 351 21 14 8 1 2 358 354 351 352 355 347 344 341 342 334 335 330
115 110 109 101 99 85 81 109 101 75 50 39 97 74 37 27 40 34 56 60 45 54 85 84 19 4 339 343 338 354 2 3 4 9 3 352 353 339 338 335 343 338 331
112 112 119 121 101 93 84 99 102 108 73 13 120 88 109 345 8 18 38 50 30 37 57 21 350 344 334 316 320 345 3 1 360 1 356 348 339 335 331 335 334 338 337
97 108 104 107 95 96 99 86 125 116 122 21 60 135 101 196 146 326 3 40 16 33 349 345 346 349 341 326 336 330 359 355 358 355 349 344 340 336 335 330 334 332 328
94 96 101 99 95 98 93 95 91 100 116 132 66 31 58 135 150 304 327 347 352 24 9 347 356 348 342 328 336 342 357 0 360 356 351 347 344 340 338 339 335 331 332
86 98 104 97 104 101 98 101 89 92 108 107 98 99 52 53 55 124 246 322 356 345 333 10 344 344 332 330 313 353 2 360 358 357 356 351 349 350 354 346 341 337 334
96 101 98 93 105 102 101 93 95 89 85 83 87 77 107 129 241 85 80 288 243 297 328 24 360 336 325 331 339 2 356 355 354 350 351 353 356 2 357 351 348 341 337
118 104 101 105 101 103 101 100 98 89 82 84 74 71 69 74 137 106 97 320 13 310 328 332 340 332 327 317 329 358 350 348 351 345 345 351 351 355 354 354 347 344 340
126 127 108 117 120 112 103 94 84 83 87 82 88 74 74 42 49 70 144 113 349 320 332 311 299 308 316 316 340 355 338 343 351 346 347 354 352 346 348 352 349 343 339
126 112 120 124 119 117 108 102 94 95 89 84 85 86 81 55 49 45 66 113 143 271 296 301 298 295 316 324 333 343 335 342 348 350 356 356 354 354 353 352 346 345 341
113 122 130 128 123 110 111 102 91 102 95 76 79 81 63 47 39 28 43 32 64 167 312 246 285 289 301 321 333 341 333 347 346 1 1 355 353 355 357 350 348 347 343
127 130 136 141 124 119 103 100 103 100 92 92 72 78 65 52 35 31 35 26 24 0 120 301 268 288 298 331 335 340 345 335 328 2 360 354 352 353 349 348 351 351 346
126 138 134 127 129 118 114 116 108 112 104 92 82 71 48 26 42 35 34 16 15 314 221 279 281 295 279 314 304 319 332 330 320 357 354 354 352 355 351 354 357 355 351
132 137 125 131 138 131 116 101 108 106 104 102 78 71 56 47 39 25 13 351 331 330 297 293 300 285 280 298 314 302 329 322 322 358 355 347 354 353 354 1 5 2 357
121 120 117 116 125 116 111 110 106 106 107 102 85 69 56 54 51 12 5 333 338 340 329 338 296 292 293 298 321 330 340 338 331 356 350 344 348 351 360 360 8 8 4
117 117 106 97 97 105 120 117 118 122 118 110 71 61 50 44 44 4 3 326 302 357 341 348 309 307 306 316 329 331 319 319 306 24 346 337 353 350 359 1 9 10 5
112 123 110 120 110 91 108 120 127 117 113 101 87 50 42 35 22 12 10 354 260 12 352 332 303 300 297 285 305 312 315 340 333 6 347 306 353 340 351 359 3 9 12
128 114 111 118 107 92 100 121 119 113 106 102 83 70 50 22 21 16 2 21 29 23 22 232 288 273 297 312 306 325 326 315 299 309 352 309 3 337 340 346 9 10 15
131 131 122 126 116 110 136 124 117 118 101 98 96 84 67 19 20 21 9 27 22 13 7 354 257 279 268 292 285 280 279 300 299 309 2 330 325 337 328 342 11 6 12
133 117 129 135 131 126 152 133 121 115 103 90 81 64 36 27 2 18 45 32 21 13 335 336 297 7 18 18 19 10 354 2 337 324 1 328 332 332 323 332 10 6 3
116 110 104 128 136 130 156 141 130 125 105 101 54 35 27 35 46 42 60 53 52 343 348 355 8 7 360 3 10 32 324 353 329 339 340 352 343 349 335 338 3 7 2